This is the latest recevied weather packets stored in our database for station/object PU5FJO-13. If no packets are shown the sender has not sent any weather packets the latest 10 day(s).
| Time | Temp. | Humidity | Pressure | Rain* | Wind** | Luminosity | Snow |
|---|---|---|---|---|---|---|---|
| 1777848972 | 16.11° C | 70% | 1023.5 hPa | - | - | - | - |
| 1777848372 | 16.11° C | 69% | 1023.6 hPa | - | - | - | - |
| 1777847772 | 16.67° C | 66% | 1023.5 hPa | - | - | - | - |
| 1777847172 | 17.78° C | 65% | 1023.4 hPa | - | - | - | - |
| 1777846572 | 16.67° C | 67% | 1023.5 hPa | - | - | - | - |
| 1777845972 | 18.89° C | 61% | 1023.5 hPa | - | - | - | - |
| 1777845372 | 17.78° C | 66% | 1023.4 hPa | - | - | - | - |
| 1777844772 | 17.78° C | 65% | 1023.2 hPa | - | - | - | - |
| 1777844172 | 17.22° C | 66% | 1023.2 hPa | - | - | - | - |
| 1777843572 | 17.22° C | 67% | 1023.1 hPa | - | - | - | - |
| 1777842972 | 17.78° C | 65% | 1023.1 hPa | - | - | - | - |
| 1777842372 | 18.33° C | 61% | 1023.1 hPa | - | - | - | - |
| 1777841772 | 18.33° C | 62% | 1022.9 hPa | - | - | - | - |
| 1777841172 | 19.44° C | 57% | 1022.9 hPa | - | - | - | - |
| 1777840572 | 19.44° C | 56% | 1023 hPa | - | - | - | - |
| 1777839972 | 20.56° C | 52% | 1022.8 hPa | - | - | - | - |
| 1777839373 | 21.67° C | 49% | 1022.8 hPa | - | - | - | - |
| 1777838772 | 21.67° C | 49% | 1022.6 hPa | - | - | - | - |
| 1777838172 | 21.11° C | 49% | 1022.7 hPa | - | - | - | - |
| 1777837571 | 21.67° C | 47% | 1022.7 hPa | - | - | - | - |
| 1777836971 | 21.67° C | 46% | 1022.6 hPa | - | - | - | - |
| 1777836372 | 21.67° C | 46% | 1022.7 hPa | - | - | - | - |
| 1777835772 | 21.11° C | 46% | 1022.7 hPa | - | - | - | - |
| 1777835172 | 21.11° C | 45% | 1022.7 hPa | - | - | - | - |
| 1777834572 | 21.11° C | 45% | 1022.8 hPa | - | - | - | - |
* Rain since midnight (hover to see other rain measurements)
** Current wind speed in m/s (hover to see current wind gust speed)